STARLINK-4615, 53620

Orbit data source: Space-Track

STARLINK-4615, 53620 is a payload satellite owned by SpaceX/Seattle (US) in LEO that was launched on Sun, 28 Aug 2022 UTC via an FALCON 9 launch vehicle from the Air Force Eastern Test Range (AFETR). Payload-class satellites include a variety of spacecraft equipped with specific instruments for various scientific and technological missions. These include communications satellites like Starlink; space stations such as the ISS; scientific satellites like the Hubble; Earth observation satellites from companies like Planet Labs, Umbra, and HawkEye 360; GPS; miniature CubeSats for education and research; and military/defense satellites.

Loading next visibility...
Identifier
53620, 2022-104AJ
Orbit
LEO
Last TLE update
19 hours ago
Origin
Manufacturer
SpaceX/Seattle
Mission
Operational Commercial Communications
Bus & Motor
STARLINK, Unknown motor
Mass
300 kg wet, ~290 kg dry
Launch date (UTC)
2022-08-28 (3 years ago)
Launch vehicle
FALCON 9
Launch site
Air Force Eastern Test Range (AFETR)
Object type
Payload
Rocket body
Debris
Shape & HBR
Box + 1 Pan, 8.86 m
Radar Cross Section
13.562 m², Large (>1 m²)

Expand to show TLE details & history

TLE from 19 hours ago
0 STARLINK-4615
1 53620U 22104AJ  25181.62196898  .00000496  00000-0  49257-4 0  9991
2 53620  53.2174 285.5350 0001132  85.2768 274.8353 15.08844714157693
Epoch: 2025-06-30T14:55Z
TLE epoch observation values (Epoch: 2025-06-30T14:55:38.119Z)
Latitude
-0.00008°
Longitude
142.69698°
Altitude
540.561 km
Speed
7.593 km/s
True Right ascension
19h 02m 08s
True Declination
0° 00' 00"
Sunlit
Object was in full shadow at epoch
Visualization orbit readout
Latitude
8.42005°
Longitude
145.43787°
Altitude
539.747 km
Speed
7.594 km/s
Apparent Right ascension
16h 12m 24s
Apparent Declination
-36° 20' 46"
Sunlit
Object is in full shadow
Visualization observer readout
Local Sidereal Time
21:41:24
Azimuth
236.701° WSW
Elevation
-17.278°
Doppler factor
1
Orbital elements
Apogee altitude
540.757 km
Perigee altitude
539.191 km
Semi-major axis
6,918.111 km
Eccentricity
0.00011
Inclination
53.2174°
RAAN
285.535°
Arg. of periapsis
85.2768°
True anomaly
Unknown
Mean anomaly
274.8353°
Eccentric anomaly
Unknown
Mean motion
3.77191 °/min
Orbital period
95.44 mins
BSTAR
0.000049257
Loading maneuver chart data...
Loading SW <> Apogee altitude chart data...
Loading historical data...
Loading historical data...
Loading historical data...
Loading historical data...
Loading historical data...
Loading historical data...
Loading historical data...

STARLINK-4615 Visibility forecast

Observer location: undefined°, undefined°

Span
Click to sort rows by Start time (UTC) header in descending order
Start Az.
Max El. time (UTC)
Max El. Az.
Max El.
End time (UTC)
End Az.
7 mins2025-07-01 10:12:01.869Z249.608° W2025-07-01 10:16:01.869Z348.244° N36.507°2025-07-01 10:19:01.869Z39.477° NE
5 mins2025-07-01 15:15:01.869Z345.469° N2025-07-01 15:17:01.869Z31.445° NE24.888°2025-07-01 15:20:01.869Z84.763° E
6 mins2025-07-01 16:54:01.869Z292.925° NW2025-07-01 16:56:01.869Z246.068° WSW37.198°2025-07-01 17:00:01.869Z150.156° SSE
5 mins2025-07-02 08:26:01.869Z170.592° S2025-07-02 08:28:01.869Z121.586° SE25.451°2025-07-02 08:31:01.869Z71.709° E
|